Flag for Germany Weather past 2 weeks in Bad Nauheim, Hesse, Germany

Now
51 °F

Drizzle. Overcast.


Feels Like: 49 °F
Forecast: 43 / 69 °F
Wind: 7 mph from Northwest

Location: Giessen

Current Time: May 30, 2015 at 3:09:50 AM

Latest Report: May 30, 2015 at 2:00 AM


Visibility: 28 mi

Pressure: 29.83 "Hg

Humidity: 72%

Dew point: 42 °F

Location of Bad NauheimLocation

Historic Weather in Bad Nauheim — Graph

°F

Bad Nauheim temperature yesterday

Maximum temperature yesterday: 61 °F (at 2:00 PM)
Minimum temperature yesterday: 47 °F (at 6:00 AM)
Average temperature yesterday: 54 °F

Past Weeks' High & Low Weather Summary

 TemperatureHumidityPressure
High71 °F (May 18, 6:00 PM)97% (May 25, 4:00 AM)30.36 "Hg (May 25, 4:00 AM)
Low36 °F (May 27, 3:00 AM)31% (May 18, 6:00 PM)29.67 "Hg (May 18, 8:00 PM)
Average54 °F66%30.06 "Hg
* Reported May 15 2:00 AM — May 30 2:00 AM, Bad Nauheim, Weather by CustomWeather, © 2015

Note: Actual official high and low records may vary slightly from our data, if they occured in-between our weather recording intervals... More about our weather records

Advertising

Bad Nauheim weather history for previous 24 hours

 ConditionsComfort  
Time TempWeatherWind HumidityBarometerVisibility
2:00 AM
Sat, May 30
51 °FDrizzle. Overcast.7 mph72%29.83 "Hg28 mi
1:00 AM53 °FOvercast.3 mph74%29.80 "Hg28 mi
12:00 AM53 °FOvercast.5 mph77%29.82 "Hg22 mi
11:00 PM
Fri, May 29
54 °FOvercast.6 mph74%29.82 "Hg25 mi
10:00 PM52 °FOvercast.3 mph80%29.82 "Hg22 mi
9:00 PM56 °FOvercast.6 mph74%29.80 "Hg28 mi
8:00 PM57 °FOvercast.7 mph77%29.80 "Hg19 mi
7:00 PM57 °FOvercast.8 mph82%29.79 "Hg17 mi
6:00 PM56 °FScattered clouds.3 mph81%29.79 "Hg17 mi
5:00 PM56 °FScattered clouds.1 mph82%29.81 "Hg14 mi
4:00 PM57 °FLight rain. Overcast.5 mph75%29.83 "Hg8 mi
3:00 PM60 °FOvercast.2 mph54%29.82 "Hg34 mi
2:00 PM61 °FOvercast.3 mph53%29.84 "Hg40 mi
1:00 PM58 °FOvercast.6 mph59%29.88 "Hg31 mi
12:00 PM56 °FLow clouds.8 mph59%29.90 "Hg28 mi
11:00 AM60 °FOvercast.8 mph51%29.89 "Hg19 mi
10:00 AM57 °FOvercast.7 mph58%29.90 "Hg31 mi
9:00 AM54 °FOvercast.3 mph68%29.92 "Hg25 mi
8:00 AM52 °FPartly sunny.2 mph77%29.93 "Hg15 mi
7:00 AM48 °FPartly sunny.2 mph91%29.94 "Hg7 mi
6:00 AM47 °FOvercast.1 mph93%29.94 "Hg8 mi
5:00 AM47 °FOvercast.1 mph91%29.95 "Hg9 mi
4:00 AM49 °FOvercast.2 mph87%29.96 "Hg17 mi
3:00 AM50 °FOvercast.1 mph85%29.97 "Hg16 mi
Weather by CustomWeather, © 2015

See weather overviewHow to use our weather pages